This is the latest recevied weather packets stored in our database for station/object KC3BHK-2. If no packets are shown the sender has not sent any weather packets the latest 10 day(s).
| Time | Temp. | Humidity | Pressure | Rain* | Wind** | Luminosity | Snow |
|---|---|---|---|---|---|---|---|
| 1777703492 | 10° C | - | - | 0 mm | 2.68 m/s, 311° | - | - |
| 1777703187 | 10° C | - | - | 0 mm | 1.79 m/s, 280° | - | - |
| 1777702882 | 10.56° C | - | - | 0 mm | 0.89 m/s, 305° | - | - |
| 1777702577 | 11.11° C | - | - | 0 mm | 2.24 m/s, 321° | - | - |
| 1777702272 | 11.11° C | - | - | 0 mm | 0.89 m/s, 264° | - | - |
| 1777701967 | 11.11° C | - | - | 0 mm | 0.89 m/s, 297° | - | - |
| 1777701660 | 10.56° C | - | - | 0 mm | 0.45 m/s, 354° | - | - |
| 1777701355 | 11.11° C | - | - | 0 mm | 1.79 m/s, 274° | - | - |
| 1777701050 | 11.11° C | - | - | 0 mm | 2.24 m/s, 291° | - | - |
| 1777700745 | 11.11° C | - | - | 0 mm | 3.58 m/s, 285° | - | - |
| 1777700440 | 11.11° C | - | - | 0 mm | 2.24 m/s, 333° | - | - |
| 1777700136 | 10.56° C | - | - | 0 mm | 3.58 m/s, 311° | - | - |
| 1777699828 | 11.11° C | - | - | 0 mm | 0 m/s | - | - |
| 1777699523 | 11.11° C | - | - | 0 mm | 1.34 m/s, 311° | - | - |
| 1777699218 | 11.11° C | - | - | 0 mm | 2.24 m/s, 307° | - | - |
| 1777698913 | 11.11° C | - | - | 0 mm | 1.79 m/s, 323° | - | - |
| 1777698608 | 11.11° C | - | - | 0 mm | 0 m/s | - | - |
| 1777698303 | 11.11° C | - | - | 0 mm | 0.89 m/s, 298° | - | - |
| 1777697995 | 11.11° C | - | - | 0 mm | 0.45 m/s, 298° | - | - |
| 1777697690 | 11.11° C | - | - | 0 mm | 0 m/s | - | - |
| 1777697385 | 10.56° C | - | - | 0 mm | 0.89 m/s, 335° | - | - |
| 1777697080 | 11.11° C | - | - | 0 mm | 3.58 m/s, 308° | - | - |
| 1777696776 | 10.56° C | - | - | 0 mm | 2.68 m/s, 346° | - | - |
| 1777696471 | 11.67° C | - | - | 0 mm | 0 m/s | - | - |
| 1777696163 | 10.56° C | - | - | 0 mm | 1.79 m/s, 294° | - | - |
* Rain latest hour (hover to see other rain measurements)
** Current wind speed in m/s (hover to see current wind gust speed)